EW4049 Weather Reports


time (UTC)temp
F
wind
direction
speed
knots
gust
knots
rain 1hr
in
rain 24hr
in
rain mn
in
humidity
%
barometer
mb
20220812191019 76 57 7.8 15.6 0.00 0.00 0.00 38 1035.0
20220812190623 76 65 8.7 15.6 0.00 0.00 0.00 38 1035.0
20220812190104 76 85 1.7 9.6 0.00 0.00 0.00 40 1035.0
20220812185615 76 9 4.3 13.9 0.00 0.00 0.00 40 1035.0
20220812185108 75 65 5.2 13.9 0.00 0.00 0.00 40 1035.1
20220812185025 75 65 5.2 13.9 0.00 0.00 0.00 40 1035.1
20220812184632 75 56 7.8 13.9 0.00 0.00 0.00 41 1035.1
20220812184039 75 68 4.3 14.8 0.00 0.00 0.00 41 1035.1
20220812183559 75 66 7.0 12.2 0.00 0.00 0.00 41 1035.2
20220812183516 75 66 7.0 12.2 0.00 0.00 0.00 41 1035.2
20220812183045 75 73 4.3 14.8 0.00 0.00 0.00 41 1035.3
20220812182610 74 82 3.5 15.6 0.00 0.00 0.00 42 1035.2
20220812182043 75 60 9.6 15.6 0.00 0.00 0.00 40 1035.3
20220812181532 75 70 4.3 12.2 0.00 0.00 0.00 41 1035.3
20220812181119 75 229 2.6 12.2 0.00 0.00 0.00 41 1035.4
20220812180547 75 84 0.0 9.6 0.00 0.00 0.00 42 1035.3
20220812180133 75 108 5.2 10.4 0.00 0.00 0.00 41 1035.4
20220812175544 74 112 3.5 10.4 0.00 0.00 0.00 41 1035.5
20220812175107 74 87 3.5 9.6 0.00 0.00 0.00 42 1035.4
20220812174619 74 89 5.2 9.6 0.00 0.00 0.00 42 1035.4
20220812174107 73 101 3.5 9.6 0.00 0.00 0.00 41 1035.4
20220812173612 73 77 3.5 10.4 0.00 0.00 0.00 42 1035.6
20220812173102 73 89 2.6 10.4 0.00 0.00 0.00 42 1035.7
20220812172559 73 100 3.5 7.0 0.00 0.00 0.00 41 1035.7
20220812172026 72 108 3.5 13.9 0.00 0.00 0.00 41 1035.8
20220812171554 72 86 7.0 13.9 0.00 0.00 0.00 42 1035.9
20220812171118 73 66 3.5 8.7 0.00 0.00 0.00 41 1035.9
20220812171035 73 66 3.5 8.7 0.00 0.00 0.00 41 1035.9
20220812170607 74 64 3.5 5.2 0.00 0.00 0.00 39 1035.9
20220812170111 73 86 0.0 5.2 0.00 0.00 0.00 40 1036.0
20220812165611 72 60 1.7 8.7 0.00 0.00 0.00 42 1036.0
20220812165101 72 101 5.2 8.7 0.00 0.00 0.00 42 1036.2
20220812164618 72 112 4.3 7.8 0.00 0.00 0.00 43 1036.2
20220812164536 72 112 4.3 7.8 0.00 0.00 0.00 43 1036.2
20220812164026 71 98 2.6 9.6 0.00 0.00 0.00 43 1036.2
20220812163609 70 68 5.2 9.6 0.00 0.00 0.00 44 1036.1
20220812163113 70 74 1.7 7.8 0.00 0.00 0.00 45 1036.1
20220812162541 70 60 3.5 7.8 0.00 0.00 0.00 45 1036.1
20220812161618 70 80 4.3 9.6 0.00 0.00 0.00 45 1036.2
20220812161042 70 83 4.3 9.6 0.00 0.00 0.00 45 1036.3
20220812160531 71 56 5.2 9.6 0.00 0.00 0.00 44 1036.3
20220812155554 70 264 0.9 7.0 0.00 0.00 0.00 46 1036.4
20220812155139 69 60 4.3 7.0 0.00 0.00 0.00 46 1036.5
20220812155056 69 60 4.3 7.0 0.00 0.00 0.00 46 1036.5
20220812154601 69 39 0.0 9.6 0.00 0.00 0.00 48 1036.5
20220812154053 68 82 5.2 9.6 0.00 0.00 0.00 48 1036.5
20220812153614 69 60 4.3 8.7 0.00 0.00 0.00 47 1036.3
20220812153053 68 6 0.9 7.8 0.00 0.00 0.00 50 1036.3
20220812152604 68 94 3.5 6.1 0.00 0.00 0.00 49 1036.3
20220812152126 68 67 0.9 7.8 0.00 0.00 0.00 49 1036.3
20220812152043 68 67 0.9 7.8 0.00 0.00 0.00 49 1036.3
20220812151636 67 68 2.6 7.8 0.00 0.00 0.00 50 1036.3
20220812151145 66 64 1.7 7.8 0.00 0.00 0.00 51 1036.3
20220812151103 66 64 1.7 7.8 0.00 0.00 0.00 51 1036.3
20220812150605 66 63 4.3 11.3 0.00 0.00 0.00 51 1036.3
20220812150053 66 67 6.1 11.3 0.00 0.00 0.00 50 1036.3
20220812145551 66 58 3.5 8.7 0.00 0.00 0.00 49 1036.3
20220812145112 66 46 2.6 8.7 0.00 0.00 0.00 50 1036.3
20220812144531 65 59 4.3 8.7 0.00 0.00 0.00 50 1036.3
20220812143557 65 57 4.3 8.7 0.00 0.00 0.00 49 1036.2
20220812143109 65 65 1.7 8.7 0.00 0.00 0.00 49 1036.2
20220812142539 65 46 3.5 7.0 0.00 0.00 0.00 50 1036.2
20220812142103 65 63 4.3 6.1 0.00 0.00 0.00 48 1036.2
20220812142020 65 63 4.3 6.1 0.00 0.00 0.00 48 1036.2
20220812141601 66 80 2.6 6.1 0.00 0.00 0.00 47 1036.2
20220812141134 66 76 3.5 6.1 0.00 0.00 0.00 45 1036.1
20220812140614 68 50 1.7 3.5 0.00 0.00 0.00 43 1036.0
20220812140532 68 50 1.7 3.5 0.00 0.00 0.00 43 1036.0
20220812135638 68 68 0.0 0.0 0.00 0.00 0.00 43 1035.9
20220812135049 67 27 0.0 2.6 0.00 0.00 0.00 43 1035.9
20220812134627 66 27 0.9 2.6 0.00 0.00 0.00 43 1035.9
20220812134544 66 27 0.9 2.6 0.00 0.00 0.00 43 1035.9
20220812134106 66 66 0.9 2.6 0.00 0.00 0.00 45 1035.8
20220812133616 65 34 0.0 1.7 0.00 0.00 0.00 46 1035.7
20220812133104 64 61 0.0 0.0 0.00 0.00 0.00 48 1035.7
20220812132650 63 42 0.0 1.7 0.00 0.00 0.00 51 1035.7
20220812132608 63 42 0.0 1.7 0.00 0.00 0.00 51 1035.7
20220812132034 61 248 0.0 0.0 0.00 0.00 0.00 51 1035.6
20220812131543 61 322 0.0 2.6 0.00 0.00 0.00 50 1035.5
20220812131108 61 343 0.0 2.6 0.00 0.00 0.00 51 1035.6
20220812131026 61 343 0.0 2.6 0.00 0.00 0.00 51 1035.6
20220812130555 59 236 0.0 0.0 0.00 0.00 0.00 52 1035.5
20220812125559 58 102 0.0 1.7 0.00 0.00 0.00 54 1035.4
20220812125516 58 102 0.0 1.7 0.00 0.00 0.00 54 1035.4
20220812125027 57 252 0.0 1.7 0.00 0.00 0.00 56 1035.2
20220812124531 56 304 0.9 0.9 0.00 0.00 0.00 56 1035.2
20220812124044 56 242 0.0 1.7 0.00 0.00 0.00 57 1035.1
20220812123605 55 248 0.0 1.7 0.00 0.00 0.00 58 1035.0
20220812123059 55 247 0.9 1.7 0.00 0.00 0.00 58 1034.9
20220812122603 55 231 0.0 0.9 0.00 0.00 0.00 58 1034.9
20220812122520 55 231 0.0 0.9 0.00 0.00 0.00 58 1034.9
20220812122131 54 248 0.0 0.9 0.00 0.00 0.00 58 1034.9
20220812121554 54 250 0.0 0.0 0.00 0.00 0.00 58 1034.9
20220812121126 54 249 0.0 0.0 0.00 0.00 0.00 58 1034.8
20220812120611 54 244 0.0 1.7 0.00 0.00 0.00 58 1034.9
20220812120528 54 244 0.0 1.7 0.00 0.00 0.00 58 1034.9
20220812115554 55 37 0.0 1.7 0.00 0.00 0.00 57 1034.8
20220812115100 55 60 0.0 1.7 0.00 0.00 0.00 57 1034.7
20220812114122 56 259 0.0 0.9 0.00 0.00 0.00 57 1034.7
20220812113545 56 254 0.0 0.0 0.00 0.00 0.00 58 1034.6
20220812113051 56 324 0.0 1.7 0.00 0.00 0.00 57 1034.7
20220812112551 56 30 0.0 0.9 0.00 0.00 0.00 57 1034.6
20220812112103 56 30 0.0 0.9 0.00 0.00 0.00 57 1034.7
20220812111628 57 62 0.0 0.9 0.00 0.00 0.00 55 1034.6
20220812111546 57 62 0.0 0.9 0.00 0.00 0.00 55 1034.6
20220812111057 57 248 0.0 0.0 0.00 0.00 0.00 53 1034.6
20220812110650 58 248 0.0 0.0 0.00 0.00 0.00 52 1034.6
20220812110607 58 248 0.0 0.0 0.00 0.00 0.00 52 1034.6
20220812110112 58 243 0.0 0.0 0.00 0.00 0.00 51 1034.6
20220812105604 57 233 0.0 0.0 0.00 0.00 0.00 53 1034.6
20220812105521 57 233 0.0 0.0 0.00 0.00 0.00 53 1034.6
20220812105052 56 233 0.0 0.0 0.00 0.00 0.00 55 1034.4
20220812104618 56 234 0.0 0.0 0.00 0.00 0.00 56 1034.4
20220812104535 56 234 0.0 0.0 0.00 0.00 0.00 56 1034.4
20220812104101 56 234 0.0 0.0 0.00 0.00 0.00 57 1034.5
20220812104019 56 234 0.0 0.0 0.00 0.00 0.00 57 1034.5
20220812103606 56 238 0.0 0.0 0.00 0.00 0.00 58 1034.4
20220812103524 56 238 0.0 0.0 0.00 0.00 0.00 58 1034.4
20220812103107 56 250 0.0 0.0 0.00 0.00 0.00 57 1034.4
20220812102559 56 257 0.0 1.7 0.00 0.00 0.00 57 1034.4
20220812102144 56 245 0.0 1.7 0.00 0.00 0.00 57 1034.5
20220812101534 56 258 0.0 0.0 0.00 0.00 0.00 58 1034.5
20220812101058 56 256 0.0 0.9 0.00 0.00 0.00 59 1034.5
20220812100624 56 248 0.0 0.9 0.00 0.00 0.00 59 1034.5
20220812100041 56 247 0.0 0.9 0.00 0.00 0.00 58 1034.5
20220812095532 56 245 0.0 0.0 0.00 0.00 0.00 59 1034.5
20220812095042 56 260 0.0 0.0 0.00 0.00 0.00 59 1034.5
20220812094615 56 262 0.0 0.9 0.00 0.00 0.00 58 1034.5
20220812094114 56 262 0.0 1.7 0.00 0.00 0.00 58 1034.6
20220812094031 56 262 0.0 1.7 0.00 0.00 0.00 58 1034.6
20220812093626 57 31 0.0 1.7 0.00 0.00 0.00 58 1034.5
20220812093543 57 31 0.0 1.7 0.00 0.00 0.00 58 1034.5
20220812093115 57 275 0.0 0.0 0.00 0.00 0.00 58 1034.5
20220812093032 57 275 0.0 0.0 0.00 0.00 0.00 58 1034.5
20220812092016 57 262 0.0 0.0 0.00 0.00 0.00 58 1034.6
20220812091547 57 288 0.0 0.9 0.00 0.00 0.00 58 1034.6
20220812091111 57 257 0.9 0.9 0.00 0.00 0.00 57 1034.5
20220812090558 57 262 0.0 0.9 0.00 0.00 0.00 57 1034.4
20220812090122 57 238 0.0 0.9 0.00 0.00 0.00 56 1034.4
20220812085528 57 253 0.0 0.0 0.00 0.00 0.00 57 1034.3
20220812085037 57 228 0.0 0.0 0.00 0.00 0.00 57 1034.3
20220812084530 57 243 0.0 0.0 0.00 0.00 0.00 57 1034.3
20220812084026 58 236 0.0 0.9 0.00 0.00 0.00 57 1034.3
20220812083630 58 259 0.0 0.9 0.00 0.00 0.00 57 1034.3
20220812083129 58 252 0.0 0.9 0.00 0.00 0.00 56 1034.3
20220812082549 58 306 0.0 0.0 0.00 0.00 0.00 56 1034.2
20220812082118 58 33 0.0 0.9 0.00 0.00 0.00 56 1034.2
20220812082035 58 33 0.0 0.9 0.00 0.00 0.00 56 1034.2
20220812081521 58 248 0.0 0.9 0.00 0.00 0.00 55 1034.0
20220812081052 58 247 0.0 0.0 0.00 0.00 0.00 55 1034.1
20220812080552 58 257 0.0 2.6 0.00 0.00 0.00 55 1034.0
20220812080112 59 272 0.9 2.6 0.00 0.00 0.00 55 1034.1
20220812080029 59 272 0.9 2.6 0.00 0.00 0.00 55 1034.1
20220812075544 58 242 0.0 1.7 0.00 0.00 0.00 55 1034.0
20220812075109 59 279 0.9 1.7 0.00 0.00 0.00 55 1034.1
20220812074554 58 245 0.0 1.7 0.00 0.00 0.00 55 1034.1
20220812074040 58 243 0.0 1.7 0.00 0.00 0.00 55 1034.0
20220812073605 59 245 0.0 0.9 0.00 0.00 0.00 55 1034.0
20220812073523 59 245 0.0 0.9 0.00 0.00 0.00 55 1034.0
20220812073106 59 274 0.0 3.5 0.00 0.00 0.00 54 1034.0
20220812073024 59 274 0.0 3.5 0.00 0.00 0.00 54 1034.0
20220812072527 59 252 0.9 3.5 0.00 0.00 0.00 55 1033.9
20220812072013 59 255 0.9 2.6 0.00 0.00 0.00 55 1033.9
20220812071601 59 246 0.0 0.9 0.00 0.00 0.00 55 1033.9
20220812071109 59 15 0.0 0.9 0.00 0.00 0.00 54 1033.8
20220812070611 59 115 0.0 0.0 0.00 0.00 0.00 54 1033.8
20220812070529 59 115 0.0 0.0 0.00 0.00 0.00 54 1033.8
20220812070023 59 231 0.0 0.9 0.00 0.00 0.00 54 1033.9
20220812065553 60 241 0.0 0.9 0.00 0.00 0.00 53 1033.8
20220812065016 60 250 0.0 0.9 0.00 0.00 0.00 53 1033.9
20220812064521 60 222 0.0 1.7 0.00 0.00 0.00 53 1034.0
20220812064108 60 271 0.9 1.7 0.00 0.00 0.00 53 1034.1
20220812064026 60 271 0.9 1.7 0.00 0.00 0.00 53 1034.1
20220812063549 60 204 0.0 3.5 0.00 0.00 0.00 52 1034.0
20220812063112 61 19 0.0 3.5 0.00 0.00 0.00 52 1034.0
20220812063029 61 19 0.0 3.5 0.00 0.00 0.00 52 1034.0
20220812062533 60 268 0.0 0.9 0.00 0.00 0.00 52 1034.0
20220812062112 61 266 0.0 0.9 0.00 0.00 0.00 52 1034.0
20220812061513 61 46 0.0 0.9 0.00 0.00 0.00 52 1034.1
20220812061033 61 258 0.0 1.7 0.00 0.00 0.00 52 1034.1
20220812060621 61 251 0.0 1.7 0.00 0.00 0.00 52 1034.1
20220812060538 61 251 0.0 1.7 0.00 0.00 0.00 52 1034.1
20220812060032 61 304 0.0 0.9 0.00 0.00 0.00 51 1034.1
20220812055627 62 66 0.0 0.9 0.00 0.00 0.00 51 1034.2
20220812055118 62 259 0.0 1.7 0.00 0.00 0.00 50 1034.2
20220812054627 62 259 0.9 3.5 0.00 0.00 0.00 50 1034.2
20220812054018 61 270 1.7 3.5 0.00 0.00 0.00 52 1034.3
20220812053525 61 247 0.0 0.9 0.00 0.00 0.00 53 1034.2
20220812053120 61 240 0.0 0.9 0.00 0.00 0.00 53 1034.3
20220812052606 62 223 0.0 0.0 0.00 0.00 0.00 53 1034.3
20220812052523 62 223 0.0 0.0 0.00 0.00 0.00 53 1034.3
20220812052032 62 192 0.0 0.0 0.00 0.00 0.00 52 1034.3
20220812051615 62 133 0.0 1.7 0.00 0.00 0.00 52 1034.2
20220812051127 62 252 0.0 2.6 0.00 0.00 0.00 52 1034.2
20220812051044 62 252 0.0 2.6 0.00 0.00 0.00 52 1034.2
20220812050616 62 251 0.9 2.6 0.00 0.00 0.00 53 1034.3
20220812050046 62 247 0.9 1.7 0.00 0.00 0.00 52 1034.3
20220812045518 62 42 0.0 2.6 0.00 0.00 0.00 52 1034.3
20220812045027 63 259 0.0 2.6 0.00 0.00 0.00 52 1034.2
20220812044559 63 279 0.9 1.7 0.00 0.00 0.00 52 1034.2
20220812044150 63 244 0.0 1.7 0.00 0.00 0.00 51 1034.2
20220812043539 63 240 0.9 1.7 0.00 0.00 0.00 52 1034.3
20220812043142 63 252 0.0 0.0 0.00 0.00 0.00 51 1034.3
20220812043100 63 252 0.0 0.0 0.00 0.00 0.00 51 1034.3
20220812042603 63 243 0.0 0.0 0.00 0.00 0.00 51 1034.2
20220812042033 64 279 0.0 0.0 0.00 0.00 0.00 51 1034.2
20220812041559 64 282 0.0 1.7 0.00 0.00 0.00 50 1034.3
20220812041517 64 282 0.0 1.7 0.00 0.00 0.00 50 1034.3
20220812041120 65 256 0.0 1.7 0.00 0.00 0.00 48 1034.2
20220812040651 65 253 0.9 0.9 0.00 0.00 0.00 49 1034.3
20220812040110 65 259 0.0 0.9 0.00 0.00 0.00 49 1034.3
20220812035644 65 252 0.0 0.0 0.00 0.00 0.00 48 1034.2
20220812035034 66 252 0.0 0.0 0.00 0.00 0.00 47 1034.2
20220812034628 66 267 0.0 0.0 0.00 0.00 0.00 46 1034.1
20220812034034 65 253 0.0 0.0 0.00 0.00 0.00 48 1034.1
20220812033606 66 251 0.0 0.0 0.00 0.00 0.00 49 1034.1
20220812033029 66 251 0.0 0.0 0.00 0.00 0.00 48 1034.0
20220812032521 66 251 0.0 0.0 0.00 0.00 0.00 48 1034.1
20220812032105 66 247 0.0 0.0 0.00 0.00 0.00 46 1034.1
20220812031553 67 247 0.0 0.0 0.00 0.00 0.00 46 1034.1
20220812031126 67 256 0.0 0.0 0.00 0.00 0.00 46 1034.1
20220812031043 67 256 0.0 0.0 0.00 0.00 0.00 46 1034.1
20220812030608 67 256 0.0 0.0 0.00 0.00 0.00 46 1034.1
20220812030132 67 255 0.0 0.0 0.00 0.00 0.00 46 1034.1
20220812025652 68 255 0.0 0.0 0.00 0.00 0.00 45 1034.0
20220812025609 68 255 0.0 0.0 0.00 0.00 0.00 45 1034.0
20220812025054 68 255 0.0 0.0 0.00 0.00 0.00 44 1033.8
20220812024626 69 255 0.0 0.0 0.00 0.00 0.00 43 1033.7
20220812024544 69 255 0.0 0.0 0.00 0.00 0.00 43 1033.7
20220812024026 69 255 0.0 0.0 0.00 0.00 0.00 41 1033.6
20220812023529 70 255 0.0 0.0 0.00 0.00 0.00 40 1033.6
20220812023114 70 255 0.0 0.0 0.00 0.00 0.00 40 1033.5
20220812023032 70 255 0.0 0.0 0.00 0.00 0.00 40 1033.5
20220812022523 71 252 0.0 0.0 0.00 0.00 0.00 40 1033.4
20220812022106 71 251 0.0 0.0 0.00 0.00 0.00 39 1033.4
20220812022023 71 251 0.0 0.0 0.00 0.00 0.00 39 1033.4
20220812021536 71 248 0.0 0.0 0.00 0.00 0.00 39 1033.4
20220812021047 71 248 0.0 0.0 0.00 0.00 0.00 39 1033.3
20220812020551 72 248 0.0 0.0 0.00 0.00 0.00 39 1033.3
20220812020051 72 250 0.0 0.0 0.00 0.00 0.00 39 1033.2
20220812015543 72 254 0.0 0.0 0.00 0.00 0.00 39 1033.3
20220812015110 73 254 0.0 0.0 0.00 0.00 0.00 39 1033.3
20220812015027 73 254 0.0 0.0 0.00 0.00 0.00 39 1033.3
20220812014611 73 254 0.0 0.0 0.00 0.00 0.00 39 1033.4
20220812014528 73 254 0.0 0.0 0.00 0.00 0.00 39 1033.4
20220812014019 73 330 0.0 0.0 0.00 0.00 0.00 39 1033.3
20220812013516 73 53 0.0 0.0 0.00 0.00 0.00 38 1033.2
20220812013057 74 53 0.0 0.0 0.00 0.00 0.00 38 1033.2
20220812012639 74 53 0.0 0.0 0.00 0.00 0.00 38 1033.2
20220812012110 74 53 0.0 0.0 0.00 0.00 0.00 37 1033.2
20220812011546 74 69 0.0 0.0 0.00 0.00 0.00 38 1033.2
20220812011116 74 70 0.0 0.0 0.00 0.00 0.00 37 1033.2
20220812010625 75 70 0.0 0.0 0.00 0.00 0.00 37 1033.2
20220812010120 75 70 0.0 0.0 0.00 0.00 0.00 35 1033.1
20220812005615 75 70 0.0 0.0 0.00 0.00 0.00 36 1033.1
20220812005136 76 70 0.0 0.0 0.00 0.00 0.00 35 1033.2
20220812005054 76 70 0.0 0.0 0.00 0.00 0.00 35 1033.2
20220812004555 76 70 0.0 0.0 0.00 0.00 0.00 34 1033.2
20220812004102 76 61 0.0 0.0 0.00 0.00 0.00 35 1033.2
20220812003553 76 61 0.0 0.0 0.00 0.00 0.00 35 1033.2
20220812003105 76 61 0.0 5.2 0.00 0.00 0.00 34 1033.3
20220812002514 76 38 1.7 5.2 0.00 0.00 0.00 33 1033.3
20220812002016 76 64 1.7 7.0 0.00 0.00 0.00 32 1033.3
20220812001608 76 70 4.3 7.0 0.00 0.00 0.00 32 1033.2
20220812001132 76 41 4.3 6.1 0.00 0.00 0.00 32 1033.2
20220812000532 76 68 0.0 9.6 0.00 0.00 0.00 33 1033.3
20220811235551 77 61 3.5 6.1 0.00 0.00 0.00 33 1033.4
20220811235112 77 48 0.9 5.2 0.00 0.00 0.00 33 1033.3
20220811234530 77 70 0.0 3.5 0.00 0.00 0.00 34 1033.4
20220811234117 77 8 0.9 7.8 0.00 0.00 0.00 33 1033.4
20220811234034 77 8 0.9 7.8 0.00 0.00 0.00 33 1033.4
20220811233539 77 62 3.5 7.8 0.00 0.00 0.00 33 1033.4
20220811233110 77 44 3.5 7.8 0.00 0.00 0.00 33 1033.5
20220811233027 77 44 3.5 7.8 0.00 0.00 0.00 33 1033.5
20220811232529 78 86 1.7 8.7 0.00 0.00 0.00 33 1033.5
20220811232040 78 51 3.5 11.3 0.00 0.00 0.00 34 1033.6
20220811231547 78 51 7.0 11.3 0.00 0.00 0.00 34 1033.7
20220811231131 78 72 1.7 10.4 0.00 0.00 0.00 34 1033.7
20220811230611 78 138 6.1 10.4 0.00 0.00 0.00 34 1033.7
20220811230127 78 64 0.9 11.3 0.00 0.00 0.00 34 1033.7
20220811225542 78 63 5.2 11.3 0.00 0.00 0.00 33 1033.7
20220811225143 78 79 5.2 11.3 0.00 0.00 0.00 34 1033.8
20220811224512 78 90 5.2 7.8 0.00 0.00 0.00 35 1033.7
20220811224052 78 89 2.6 8.7 0.00 0.00 0.00 35 1033.7
20220811223620 77 101 2.6 8.7 0.00 0.00 0.00 34 1033.7
20220811223049 78 58 0.9 7.0 0.00 0.00 0.00 35 1033.7
20220811222628 78 103 0.0 7.8 0.00 0.00 0.00 35 1033.7
20220811222053 77 66 2.6 7.8 0.00 0.00 0.00 34 1033.9
20220811221541 78 65 4.3 7.8 0.00 0.00 0.00 34 1033.8
20220811221041 78 98 3.5 7.8 0.00 0.00 0.00 33 1033.8
20220811220635 78 58 4.3 11.3 0.00 0.00 0.00 33 1033.9
20220811220552 78 58 4.3 11.3 0.00 0.00 0.00 33 1033.9
20220811220048 78 71 7.0 11.3 0.00 0.00 0.00 35 1034.0
20220811215627 78 57 4.3 11.3 0.00 0.00 0.00 35 1033.9
20220811215140 78 67 6.1 9.6 0.00 0.00 0.00 33 1033.9
20220811215058 78 67 6.1 9.6 0.00 0.00 0.00 33 1033.9
20220811214552 78 58 6.1 12.2 0.00 0.00 0.00 34 1033.9
20220811214104 78 22 5.2 12.2 0.00 0.00 0.00 34 1033.8
20220811213555 78 149 4.3 13.0 0.00 0.00 0.00 34 1034.0
20220811213513 78 149 4.3 13.0 0.00 0.00 0.00 34 1034.0
20220811213120 79 32 6.1 16.5 0.00 0.00 0.00 33 1034.0
20220811212542 79 58 8.7 16.5 0.00 0.00 0.00 34 1034.2
20220811212053 79 108 6.1 13.0 0.00 0.00 0.00 34 1034.2
20220811211109 79 65 5.2 12.2 0.00 0.00 0.00 34 1034.3
20220811210552 78 92 5.2 12.2 0.00 0.00 0.00 36 1034.3
20220811210052 78 86 4.3 17.4 0.00 0.00 0.00 35 1034.3
20220811205115 79 74 8.7 18.2 0.00 0.00 0.00 35 1034.4
20220811204629 79 187 3.5 15.6 0.00 0.00 0.00 35 1034.4
20220811204047 78 78 5.2 15.6 0.00 0.00 0.00 36 1034.4
20220811203619 78 56 7.0 15.6 0.00 0.00 0.00 36 1034.4
20220811203102 78 48 9.6 15.6 0.00 0.00 0.00 35 1034.5
20220811203020 78 48 9.6 15.6 0.00 0.00 0.00 35 1034.5
20220811202608 78 75 9.6 17.4 0.00 0.00 0.00 35 1034.5
20220811202029 78 4 4.3 13.9 0.00 0.00 0.00 35 1034.4
20220811201620 78 62 7.0 17.4 0.00 0.00 0.00 33 1034.7
20220811201103 79 68 7.8 17.4 0.00 0.00 0.00 35 1034.6
20220811200614 78 111 6.1 16.5 0.00 0.00 0.00 35 1034.7
20220811200531 78 111 6.1 16.5 0.00 0.00 0.00 35 1034.7
20220811200035 79 61 9.6 16.5 0.00 0.00 0.00 35 1034.9
20220811195608 78 63 9.6 14.8 0.00 0.00 0.00 36 1034.8
20220811195526 78 63 9.6 14.8 0.00 0.00 0.00 36 1034.8
20220811195058 79 65 9.6 18.2 0.00 0.00 0.00 35 1034.9
20220811194540 78 30 7.0 18.2 0.00 0.00 0.00 37 1034.9
20220811194028 78 48 7.0 15.6 0.00 0.00 0.00 36 1035.0
20220811193600 79 68 10.4 15.6 0.00 0.00 0.00 36 1034.9
20220811193044 78 51 10.4 15.6 0.00 0.00 0.00 36 1034.9
20220811192615 79 64 8.7 15.6 0.00 0.00 0.00 35 1035.0
20220811192114 79 61 7.8 15.6 0.00 0.00 0.00 36 1034.9
20220811192032 79 61 7.8 15.6 0.00 0.00 0.00 36 1034.9
20220811191604 78 64 1.7 12.2 0.00 0.00 0.00 36 1034.9